DW1541 Weather Reports


Display with metric or nautical units.
time (UTC)temp
F
wind
direction
speed
MPH
gust
MPH
rain 1hr
in
rain 24hr
in
rain mn
in
humidity
%
barometer
mb
20260503185017 66 0 0.0 0.0 0.00 0.00 0.00 71 1013.2
20260503184536 65 0 0.0 0.0 0.00 0.00 0.00 73 1013.2
20260503184017 65 0 0.0 0.0 0.00 0.00 0.00 72 1013.3
20260503183520 65 0 0.0 0.0 0.00 0.00 0.00 71 1013.4
20260503183030 64 0 0.0 0.0 0.00 0.00 0.00 74 1013.4
20260503182516 64 0 0.0 0.0 0.00 0.00 0.00 74 1013.4
20260503182017 64 0 0.0 0.0 0.00 0.00 0.00 74 1013.4
20260503181544 63 0 0.0 0.0 0.00 0.00 0.00 74 1013.5
20260503181017 63 0 0.0 0.0 0.00 0.00 0.00 75 1013.6
20260503180517 62 0 0.0 0.0 0.00 0.00 0.00 75 1013.6
20260503180033 62 0 0.0 0.0 0.00 0.00 0.00 75 1013.6
20260503175517 62 0 0.0 0.0 0.00 0.00 0.00 76 1013.8
20260503175016 61 0 0.0 0.0 0.00 0.00 0.00 77 1013.8
20260503174539 61 0 0.0 0.0 0.00 0.00 0.00 77 1013.8
20260503174017 61 0 0.0 0.0 0.00 0.00 0.00 79 1013.9
20260503173514 60 0 0.0 0.0 0.00 0.00 0.00 78 1013.9
20260503173035 60 0 0.0 0.0 0.00 0.00 0.00 80 1014.1
20260503172515 59 0 0.0 0.0 0.00 0.00 0.00 81 1014.1
20260503172016 59 0 0.0 0.0 0.00 0.00 0.00 82 1014.1
20260503171533 58 0 0.0 0.0 0.00 0.00 0.00 84 1014.1
20260503171017 58 0 0.0 0.0 0.00 0.00 0.00 85 1014.2
20260503170515 57 0 0.0 0.0 0.00 0.00 0.00 86 1014.2
20260503150516 52 0 0.0 0.0 0.00 0.00 0.00 88 1014.2
20260503131017 51 0 0.0 0.0 0.00 0.00 0.00 89 1013.9
20260503130514 52 0 0.0 0.0 0.00 0.00 0.00 89 1014.0
20260503110517 53 0 0.0 0.0 0.00 0.00 0.00 89 1014.3
20260503081540 56 0 0.0 0.0 0.00 0.00 0.00 86 1014.5
20260503081016 56 0 0.0 0.0 0.00 0.00 0.00 86 1014.5
20260503080515 56 0 0.0 0.0 0.00 0.00 0.00 86 1014.5
20260503072516 57 0 0.0 0.0 0.00 0.00 0.00 84 1014.6
20260503072016 57 0 0.0 0.0 0.00 0.00 0.00 83 1014.5
20260503071533 57 0 0.0 0.0 0.00 0.00 0.00 83 1014.6
20260503071015 57 0 0.0 0.0 0.00 0.00 0.00 83 1014.5
20260503070518 57 0 0.0 0.0 0.00 0.00 0.00 82 1014.5
20260503055016 59 0 0.0 0.0 0.00 0.00 0.00 79 1014.4
20260503054544 59 0 0.0 0.0 0.00 0.00 0.00 79 1014.3
20260503054017 59 0 0.0 0.0 0.00 0.00 0.00 79 1014.4
20260503053515 59 0 0.0 0.0 0.00 0.00 0.00 79 1014.3
20260503053035 59 0 0.0 0.0 0.00 0.00 0.00 78 1014.4
20260503052516 60 0 0.0 0.0 0.00 0.00 0.00 78 1014.4
20260503052016 60 0 0.0 0.0 0.00 0.00 0.00 78 1014.4
20260503051535 60 0 0.0 0.0 0.00 0.00 0.00 79 1014.4
20260503051016 60 0 0.0 0.0 0.00 0.00 0.00 78 1014.4
20260503050516 60 0 0.0 0.0 0.00 0.00 0.00 78 1014.4
20260503050035 61 0 0.0 0.0 0.00 0.00 0.00 77 1014.4
20260503045516 61 0 0.0 0.0 0.00 0.00 0.00 76 1014.3
20260503045017 61 0 0.0 0.0 0.00 0.00 0.00 76 1014.2
20260503044540 61 0 0.0 0.0 0.00 0.00 0.00 75 1014.3
20260503044017 61 0 0.0 0.0 0.00 0.00 0.00 75 1014.2
20260503043516 62 0 0.0 0.0 0.00 0.00 0.00 75 1014.1
20260503043042 62 0 0.0 0.0 0.00 0.00 0.00 75 1014.1
20260503042517 62 0 0.0 0.0 0.00 0.00 0.00 74 1014.0
20260503042016 62 0 0.0 0.0 0.00 0.00 0.00 75 1013.9
20260503041530 63 0 0.0 0.0 0.00 0.00 0.00 75 1013.9
20260503041017 63 0 0.0 0.0 0.00 0.00 0.00 74 1013.8
20260503040521 63 0 0.0 0.0 0.00 0.00 0.00 74 1013.8
20260503040037 64 0 0.0 0.0 0.00 0.00 0.00 74 1013.7
20260503035521 64 0 0.0 0.0 0.00 0.00 0.00 73 1013.7
20260503035015 64 0 0.0 0.0 0.00 0.00 0.00 73 1013.6
20260503034541 65 0 0.0 0.0 0.00 0.00 0.00 73 1013.6
20260503034016 65 0 0.0 0.0 0.00 0.00 0.00 72 1013.4
20260503033516 65 0 0.0 0.0 0.00 0.00 0.00 72 1013.6
20260503033034 66 0 0.0 0.0 0.00 0.00 0.00 72 1013.5
20260503032517 66 0 0.0 0.0 0.00 0.00 0.00 71 1013.4
20260503032019 66 0 0.0 0.0 0.00 0.00 0.00 71 1013.3
20260503031534 66 0 0.0 0.0 0.00 0.00 0.00 70 1013.3
20260503031019 67 0 0.0 0.0 0.00 0.00 0.00 70 1013.3
20260503030518 67 0 0.0 0.0 0.00 0.00 0.00 69 1013.2
20260503030038 67 0 0.0 0.0 0.00 0.00 0.00 67 1013.1
20260503025519 68 0 0.0 0.0 0.00 0.00 0.00 67 1013.1
20260503025019 68 0 0.0 0.0 0.00 0.00 0.00 68 1013.1
20260503024538 68 0 0.0 0.0 0.00 0.00 0.00 67 1013.1
20260503024019 68 0 0.0 0.0 0.00 0.00 0.00 66 1013.1
20260503023518 68 0 0.0 0.0 0.00 0.00 0.00 66 1013.0
20260503023037 68 0 0.0 0.0 0.00 0.00 0.00 65 1013.1
20260503022518 69 0 0.0 0.0 0.00 0.00 0.00 65 1013.2
20260503022018 69 0 0.0 0.0 0.00 0.00 0.00 65 1013.1
20260503021534 69 0 0.0 0.0 0.00 0.00 0.00 65 1013.0
20260503021019 69 0 0.0 0.0 0.00 0.00 0.00 64 1013.0
20260503020519 69 0 0.0 0.0 0.00 0.00 0.00 64 1012.9
20260503020040 69 0 0.0 0.0 0.00 0.00 0.00 64 1013.0
20260503015521 70 0 0.0 0.0 0.00 0.00 0.00 64 1012.9
20260503015019 70 0 0.0 0.0 0.00 0.00 0.00 64 1013.0
20260503014539 70 0 0.0 0.0 0.00 0.00 0.00 65 1012.9
20260503014019 70 0 0.0 0.0 0.00 0.00 0.00 65 1012.8
20260503013519 70 0 0.0 0.0 0.00 0.00 0.00 65 1012.7
20260503013042 70 0 0.0 0.0 0.00 0.00 0.00 65 1012.8
20260503012519 70 0 0.0 0.0 0.00 0.00 0.00 66 1012.8
20260503012019 70 0 0.0 0.0 0.00 0.00 0.00 66 1012.9
20260503011536 70 0 0.0 0.0 0.00 0.00 0.00 65 1012.9
20260503011018 71 0 0.0 0.0 0.00 0.00 0.00 65 1012.8
20260503010520 71 0 0.0 0.0 0.00 0.00 0.00 66 1012.9
20260503010035 71 0 0.0 0.0 0.00 0.00 0.00 66 1012.8
20260503005519 71 0 0.0 0.0 0.00 0.00 0.00 66 1012.9
20260503005019 71 0 0.0 0.0 0.00 0.00 0.00 66 1012.9
20260503004537 71 0 0.0 0.0 0.00 0.00 0.00 66 1013.0
20260503004023 71 0 0.0 0.0 0.00 0.00 0.00 66 1013.0
20260503003519 71 0 0.0 0.0 0.00 0.00 0.00 66 1013.0
20260503003043 71 0 0.0 0.0 0.00 0.00 0.00 67 1013.0
20260503002519 71 0 0.0 0.0 0.00 0.00 0.00 67 1013.0
20260503002020 71 0 0.0 0.0 0.00 0.00 0.00 68 1012.9
20260503001546 71 0 0.0 0.0 0.00 0.00 0.00 67 1013.1
20260503001020 71 0 0.0 0.0 0.00 0.00 0.00 68 1013.1
20260503000518 71 0 0.0 0.0 0.00 0.00 0.00 67 1013.0
20260503000034 71 0 0.0 0.0 0.00 0.00 0.00 67 1013.1
20260502235515 71 0 0.0 0.0 0.00 0.00 0.00 66 1013.1
20260502235016 71 0 0.0 0.0 0.00 0.00 0.00 67 1013.2
20260502234547 71 0 0.0 0.0 0.00 0.00 0.00 66 1013.3
20260502234016 71 0 0.0 0.0 0.00 0.00 0.00 66 1013.3
20260502233516 71 0 0.0 0.0 0.00 0.00 0.00 66 1013.4
20260502233039 70 0 0.0 0.0 0.00 0.00 0.00 66 1013.4
20260502232517 70 0 0.0 0.0 0.00 0.00 0.00 66 1013.5
20260502232014 70 0 0.0 0.0 0.00 0.00 0.00 67 1013.5
20260502231534 70 0 0.0 0.0 0.00 0.00 0.00 67 1013.6
20260502231015 70 0 0.0 0.0 0.00 0.00 0.00 68 1013.7
20260502230516 70 0 0.0 0.0 0.00 0.00 0.00 67 1013.8
20260502230036 70 0 0.0 0.0 0.00 0.00 0.00 68 1013.9
20260502225517 70 0 0.0 0.0 0.00 0.00 0.00 68 1013.9
20260502225017 70 0 0.0 0.0 0.00 0.00 0.00 67 1014.0
20260502224540 70 0 0.0 0.0 0.00 0.00 0.00 68 1014.1
20260502224017 70 0 0.0 0.0 0.00 0.00 0.00 68 1014.1
20260502223517 70 0 0.0 0.0 0.00 0.00 0.00 68 1014.2
20260502223039 70 0 0.0 0.0 0.00 0.00 0.00 68 1014.2
20260502222516 70 0 0.0 0.0 0.00 0.00 0.00 69 1014.3
20260502222015 70 0 0.0 0.0 0.00 0.00 0.00 68 1014.3
20260502221529 70 0 0.0 0.0 0.00 0.00 0.00 69 1014.4
20260502221016 70 0 0.0 0.0 0.00 0.00 0.00 69 1014.4
20260502220517 70 0 0.0 0.0 0.00 0.00 0.00 69 1014.6
20260502220034 70 0 0.0 0.0 0.00 0.00 0.00 68 1014.7
20260502215518 70 0 0.0 0.0 0.00 0.00 0.00 67 1014.8
20260502215020 71 0 0.0 0.0 0.00 0.00 0.00 68 1014.8
20260502214542 71 0 0.0 0.0 0.00 0.00 0.00 68 1014.8
20260502214019 71 0 0.0 0.0 0.00 0.00 0.00 66 1014.9
20260502213517 72 0 0.0 0.0 0.00 0.00 0.00 65 1014.9
20260502213032 72 0 0.0 0.0 0.00 0.00 0.00 66 1014.9
20260502212517 72 0 0.0 0.0 0.00 0.00 0.00 66 1014.9
20260502212017 72 0 0.0 0.0 0.00 0.00 0.00 68 1014.9
20260502211534 72 0 0.0 0.0 0.00 0.00 0.00 66 1014.9
20260502211015 72 0 0.0 0.0 0.00 0.00 0.00 66 1015.0
20260502210516 72 0 0.0 0.0 0.00 0.00 0.00 67 1015.0
20260502210040 71 0 0.0 0.0 0.00 0.00 0.00 67 1015.0
20260502205515 71 0 0.0 0.0 0.00 0.00 0.00 67 1015.1
20260502205017 71 0 0.0 0.0 0.00 0.00 0.00 65 1015.2
20260502204536 71 0 0.0 0.0 0.00 0.00 0.00 66 1015.3
20260502204017 72 0 0.0 0.0 0.00 0.00 0.00 66 1015.3
20260502203521 72 0 0.0 0.0 0.00 0.00 0.00 66 1015.3
20260502203042 72 0 0.0 0.0 0.00 0.00 0.00 68 1015.3
20260502202521 72 0 0.0 0.0 0.00 0.00 0.00 67 1015.3
20260502202015 71 0 0.0 0.0 0.00 0.00 0.00 67 1015.3
20260502201530 71 0 0.0 0.0 0.00 0.00 0.00 70 1015.4
20260502201016 71 0 0.0 0.0 0.00 0.00 0.00 68 1015.5
20260502200518 70 0 0.0 0.0 0.00 0.00 0.00 68 1015.6
20260502200041 69 0 0.0 0.0 0.00 0.00 0.00 70 1015.5
20260502195516 69 0 0.0 0.0 0.00 0.00 0.00 70 1015.6
20260502195015 68 0 0.0 0.0 0.00 0.00 0.00 73 1015.8
20260502194535 67 0 0.0 0.0 0.00 0.00 0.00 75 1015.8
20260502194017 66 0 0.0 0.0 0.00 0.00 0.00 76 1015.8
20260502193516 65 0 0.0 0.0 0.00 0.00 0.00 80 1015.9
20260502193038 64 0 0.0 0.0 0.00 0.00 0.00 82 1016.0
20260502192517 63 0 0.0 0.0 0.00 0.00 0.00 81 1016.0
20260502192016 62 0 0.0 0.0 0.00 0.00 0.00 83 1016.0
20260502191530 61 0 0.0 0.0 0.00 0.00 0.00 85 1016.2
20260502191014 60 0 0.0 0.0 0.00 0.00 0.00 84 1016.2
20260502190515 60 0 0.0 0.0 0.00 0.00 0.00 84 1016.2
20260502190042 60 0 0.0 0.0 0.00 0.00 0.00 84 1016.3
20260502185517 60 0 0.0 0.0 0.00 0.00 0.00 84 1016.3